Fargo, ND

5:07 PM CDT on September 19, 2017 (GMT -0500)
Hector International

Weather History for KFAR - January, 2013

Change the Weather History Date:

Tuesday, January 15, 2013

  Actual Average Record
Temperature  
Mean Temperature 14 °F 9 °F  
Max Temperature 28 °F 18 °F 40 °F (1942)
Min Temperature 0 °F 0 °F -36 °F (1888)
Degree Days  
Heating Degree Days 51 56  
Month to date heating degree days 751 836  
Since 1 July heating degree days 4211 4376  
Cooling Degree Days 0 0  
Month to date cooling degree days 0 0  
Year to date cooling degree days 0 0  
Moisture  
Dew Point 9 °F    
Average Humidity 75    
Maximum Humidity 87    
Minimum Humidity 62    
Precipitation  
Precipitation 0.06 in 0.02 in 0.48 in (1889)
Month to date precipitation 0.35 0.37  
Year to date precipitation 0.35 0.37  
Snow  
Snow 0.70 in 0.30 in 4.00 in (1920)
Month to date snowfall 2.4 5.9  
Since 1 July snowfall 15.9 25.7  
Snow Depth 2.00 in    
Sea Level Pressure  
Sea Level Pressure 29.92 in    
Wind  
Wind Speed 14 mph (South)    
Max Wind Speed 23 mph    
Max Gust Speed 28 mph    
Visibility 8 miles    
Events Snow    
T = Trace of Precipitation, MM = Missing Value Source: NWS Daily Summary

Daily Weather History Graph

Daily Weather History Graph

Search for Another Location

Airport or City:

Trip Planner

Search our weather history database for the weather conditions in past years. The results will help you decide how hot, cold, wet, or windy it might be!

Date:

Astronomy

Jan. 15, 2013 Rise Set
Actual Time 8:08 AM CST 5:05 PM CST
Civil Twilight 7:33 AM CST 5:40 PM CST
Nautical Twilight 6:56 AM CST 6:17 PM CST
Astronomical Twilight 6:19 AM CST 6:54 PM CST
Moon 9:54 AM CST (1/15) 10:19 PM CST (1/15)
Length of Visible Light 10h 06m
Length of Day
8h 57m
Waxing Crescent, 19% of the Moon is Illuminated
Jan 15
Waxing Crescent
Jan 18
First Quarter
Jan 26
Full
Feb 3
Last Quarter
Feb 10
New

Hourly Weather History & Observations

Time (CST) Temp. Windchill Dew Point Humidity Pressure Visibility Wind Dir Wind Speed Gust Speed Precip Events Conditions
12:53 AM 1.9 °F -11.8 °F -2.9 °F 80% 30.25 in 8.0 mi South 8.1 mph - N/A   Clear
1:53 AM 1.0 °F -12.9 °F -4.0 °F 79% 30.25 in 7.0 mi South 8.1 mph - N/A   Clear
2:53 AM 1.9 °F -9.2 °F -2.9 °F 80% 30.23 in 8.0 mi South 5.8 mph - N/A   Clear
3:53 AM 3.9 °F -10.4 °F -0.9 °F 80% 30.20 in 8.0 mi South 9.2 mph - N/A   Overcast
4:53 AM 6.8 °F -3.5 °F -0.4 °F 72% 30.10 in 10.0 mi South 5.8 mph - N/A   Overcast
5:53 AM 7.0 °F -5.7 °F 1.0 °F 77% 30.12 in 10.0 mi SE 8.1 mph - N/A   Overcast
6:53 AM 9.0 °F -6.6 °F 3.0 °F 77% 30.11 in 10.0 mi SSE 12.7 mph - N/A   Overcast
7:53 AM 10.0 °F -6.5 °F 3.0 °F 73% 30.10 in 10.0 mi South 15.0 mph - N/A   Overcast
8:53 AM 10.0 °F -5.2 °F 3.0 °F 73% 30.11 in 10.0 mi South 12.7 mph - N/A   Mostly Cloudy
9:53 AM 12.9 °F -2.2 °F 5.0 °F 71% 30.09 in 10.0 mi South 13.8 mph - N/A   Clear
10:53 AM 15.1 °F -1.6 °F 7.0 °F 70% 30.06 in 10.0 mi South 18.4 mph - N/A   Mostly Cloudy
11:53 AM 17.1 °F 2.5 °F 8.1 °F 68% 30.03 in 10.0 mi SSW 15.0 mph - N/A   Partly Cloudy
12:53 PM 19.0 °F 5.0 °F 8.1 °F 62% 29.99 in 10.0 mi South 15.0 mph - N/A   Clear
1:53 PM 19.0 °F 4.5 °F 9.0 °F 65% 29.98 in 10.0 mi SSW 16.1 mph - N/A   Clear
2:53 PM 19.9 °F 5.7 °F 9.0 °F 62% 29.96 in 10.0 mi SSW 16.1 mph - N/A   Clear
3:53 PM 19.9 °F 6.7 °F 10.0 °F 65% 29.94 in 10.0 mi South 13.8 mph - N/A   Clear
4:53 PM 19.0 °F 4.5 °F 9.0 °F 65% 29.92 in 10.0 mi South 16.1 mph - N/A   Clear
5:53 PM 19.0 °F 4.5 °F 9.0 °F 65% 29.86 in 10.0 mi South 16.1 mph - N/A   Clear
6:53 PM 18.0 °F 1.7 °F 9.0 °F 68% 29.81 in 10.0 mi South 19.6 mph - N/A   Partly Cloudy
7:53 PM 19.9 °F 4.3 °F 10.9 °F 68% 29.79 in 10.0 mi SSW 19.6 mph - N/A   Overcast
8:40 PM 21.2 °F 5.6 °F 12.2 °F 68% 29.68 in 2.5 mi South 20.7 mph - 0.00 in Snow Light Snow
8:53 PM 21.0 °F 5.7 °F 14.0 °F 74% 29.72 in 2.0 mi South 19.6 mph - 0.00 in Snow Light Snow
9:16 PM 21.2 °F 5.2 °F 15.8 °F 80% 29.64 in 1.5 mi South 21.9 mph - 0.01 in Snow Light Snow
9:53 PM 21.9 °F 7.3 °F 17.1 °F 82% 29.67 in 1.5 mi South 18.4 mph - 0.02 in Snow Light Snow
10:12 PM 21.2 °F 6.4 °F 17.6 °F 86% 29.60 in 2.5 mi South 18.4 mph - 0.00 in Snow Light Snow
10:31 PM 23.0 °F 8.7 °F 19.4 °F 86% 29.59 in 4.0 mi South 18.4 mph - 0.01 in Snow Light Snow
10:53 PM 24.1 °F 10.1 °F 19.9 °F 84% 29.63 in 5.0 mi South 18.4 mph - 0.01 in Snow Light Snow
11:00 PM 24.8 °F 11.1 °F 19.4 °F 80% 29.57 in 2.5 mi SSW 18.4 mph - 0.00 in Snow Light Snow
11:16 PM 26.6 °F 13.4 °F 21.2 °F 80% 29.56 in 5.0 mi SSW 18.4 mph - 0.00 in   Haze
11:53 PM 27.0 °F 15.2 °F 23.0 °F 85% 29.60 in 8.0 mi SSW 15.0 mph - 0.00 in   Overcast